Date String (YYYY-MM-DD hh:mm:ss) UTC,Instrument flags,Ambient pressure (hPa),Sample flow (lpm),Bypass flow (lpm),Sample temperature (°C),Ambient temperature (°C),ASC tube jacket temperature (°C),LED temperature (°C),Box temperature (°C),Sample RH (%),Span deviation,Mass concentration (μg/m³),Mass concentration (μg/m³),Mass concentration (μg/m³)
DateTimeUTC,F1_M11,P_M11,Q1_M11,Q2_M11,T1_M11,T2_M11,T3_M11,T4_M11,T5_M11,U1_M11,ZSPAN_M11,X0_M11,X2_M11,X1_M11
2022-10-29 19:00:00,,0830.4,5.01,0.00,25.7,24.5,00.0,34.5,27.7,07.2,0000.0,0007.74,0003.23,0002.86
2022-10-29 19:01:00,,0830.3,4.98,0.00,25.8,24.6,00.0,34.5,27.7,07.4,0000.0,0007.95,0003.24,0002.85
2022-10-29 19:02:00,,0830.3,5.01,0.00,25.8,24.6,00.0,34.5,27.7,07.1,0000.0,0008.21,0003.27,0002.85
2022-10-29 19:03:00,,0830.3,5.01,0.00,25.8,24.6,00.0,34.5,27.7,07.1,0000.0,0007.63,0003.26,0002.85
2022-10-29 19:04:00,,0830.3,4.98,0.00,25.8,24.6,00.0,34.5,27.7,07.2,0000.0,0007.66,0003.28,0002.85
2022-10-29 19:05:00,,0830.3,5.01,0.00,25.8,24.6,00.0,34.5,27.7,07.0,0000.0,0007.01,0003.28,0002.85
2022-10-29 19:06:00,,0830.3,5.01,0.00,25.8,24.6,00.0,34.6,27.7,07.2,0000.0,0006.80,0003.27,0002.85
2022-10-29 19:07:00,,0830.4,4.99,0.00,25.8,24.6,00.0,34.6,27.7,07.2,0000.0,0007.51,0003.31,0002.86
2022-10-29 19:08:00,,0830.3,5.01,0.00,25.8,24.6,00.0,34.6,27.8,07.1,0000.0,0007.57,0003.30,0002.87
2022-10-29 19:09:00,,0830.2,4.99,0.00,25.8,24.7,00.0,34.6,27.8,07.1,0000.0,0007.52,0003.28,0002.87
2022-10-29 19:10:00,,0830.3,5.01,0.00,25.9,24.7,00.0,34.6,27.8,07.2,0000.0,0007.51,0003.27,0002.86
2022-10-29 19:11:00,,0830.2,4.98,0.00,25.9,24.7,00.0,34.6,27.8,07.0,0000.0,0007.54,0003.26,0002.87
2022-10-29 19:12:00,,0830.2,5.02,0.00,25.9,24.7,00.0,34.6,27.8,06.9,0000.0,0007.45,0003.28,0002.88
2022-10-29 19:13:00,,0830.2,4.99,0.00,25.9,24.7,00.0,34.6,27.8,06.9,0000.0,0006.99,0003.26,0002.87
2022-10-29 19:14:00,,0830.2,5.01,0.00,25.9,24.7,00.0,34.6,27.9,07.0,0000.0,0006.79,0003.28,0002.87
2022-10-29 19:15:00,,0830.3,4.99,0.00,25.9,24.7,00.0,34.6,27.9,07.0,0000.0,0006.83,0003.25,0002.87
2022-10-29 19:16:00,,0830.2,5.01,0.00,25.9,24.7,00.0,34.6,27.9,06.9,0000.0,0006.80,0003.22,0002.84
2022-10-29 19:17:00,,0830.2,5.01,0.00,25.9,24.7,00.0,34.7,27.9,06.9,0000.0,0006.95,0003.23,0002.82
2022-10-29 19:18:00,,0830.1,5.00,0.00,26.0,24.7,00.0,34.7,27.9,06.9,0000.0,0006.48,0003.22,0002.80
2022-10-29 19:19:00,,0830.1,4.99,0.00,26.0,24.7,00.0,34.7,27.9,06.9,0000.0,0006.42,0003.21,0002.79
2022-10-29 19:20:00,,0830.1,5.01,0.00,26.0,24.7,00.0,34.7,27.9,07.0,0000.0,0006.52,0003.23,0002.78
2022-10-29 19:21:00,,0830.1,4.99,0.00,26.0,24.8,00.0,34.7,27.9,06.7,0000.0,0006.43,0003.23,0002.77
2022-10-29 19:22:00,,0830.1,5.01,0.00,26.0,24.8,00.0,34.7,27.9,06.8,0000.0,0005.65,0003.20,0002.75
2022-10-29 19:23:00,,0830.1,4.99,0.00,26.0,24.8,00.0,34.7,27.9,07.2,0000.0,0005.68,0003.18,0002.75
2022-10-29 19:24:00,,0830.1,5.00,0.00,26.0,24.8,00.0,34.7,28.0,07.3,0000.0,0005.62,0003.18,0002.78
2022-10-29 19:25:00,,0830.1,4.99,0.00,26.0,24.9,00.0,34.7,28.0,07.4,0000.0,0005.70,0003.20,0002.82
2022-10-29 19:26:00,,0830.1,5.01,0.00,26.0,24.9,00.0,34.7,28.0,07.6,0000.0,0005.64,0003.24,0002.87
2022-10-29 19:27:00,,0830.1,5.01,0.00,26.1,24.9,00.0,34.8,28.0,07.6,0000.0,0005.59,0003.27,0002.94
2022-10-29 19:28:00,,0830.1,4.98,0.00,26.1,24.9,00.0,34.8,28.0,07.5,0000.0,0005.60,0003.30,0002.99
2022-10-29 19:29:00,,0830.1,5.02,0.00,26.1,25.0,00.0,34.8,28.0,07.7,0000.0,0005.32,0003.32,0003.04
2022-10-29 19:30:00,,0830.1,4.98,0.00,26.1,25.0,00.0,34.8,28.0,07.5,0000.0,0005.22,0003.34,0003.08
2022-10-29 19:31:00,,0830.1,5.01,0.00,26.1,25.0,00.0,34.8,28.1,07.6,0000.0,0005.24,0003.35,0003.11
2022-10-29 19:32:00,,0830.1,4.99,0.00,26.1,25.0,00.0,34.8,28.1,07.2,0000.0,0005.27,0003.36,0003.13
2022-10-29 19:33:00,,0830.1,5.01,0.00,26.2,25.0,00.0,34.9,28.1,07.1,0000.0,0005.12,0003.38,0003.15
2022-10-29 19:34:00,,0830.1,4.99,0.00,26.2,25.0,00.0,34.9,28.1,06.8,0000.0,0004.88,0003.37,0003.16
2022-10-29 19:35:00,,0830.1,5.01,0.00,26.2,25.0,00.0,34.9,28.1,06.6,0000.0,0004.93,0003.36,0003.15
2022-10-29 19:36:00,,0830.1,5.01,0.00,26.2,25.0,00.0,34.9,28.1,06.6,0000.0,0004.82,0003.35,0003.15
2022-10-29 19:37:00,,0830.1,4.98,0.00,26.2,25.0,00.0,34.9,28.1,06.5,0000.0,0004.87,0003.37,0003.16
2022-10-29 19:38:00,,0830.0,5.01,0.00,26.2,25.0,00.0,34.9,28.1,06.7,0000.0,0004.79,0003.36,0003.16
2022-10-29 19:39:00,,0829.9,4.99,0.00,26.2,25.0,00.0,34.9,28.1,06.9,0000.0,0004.57,0003.35,0003.17
2022-10-29 19:40:00,,0829.9,5.01,0.00,26.2,25.0,00.0,34.9,28.2,07.1,0000.0,0004.55,0003.35,0003.18
2022-10-29 19:41:00,,0829.9,4.98,0.00,26.2,25.0,00.0,34.9,28.2,07.1,0000.0,0004.64,0003.38,0003.20
2022-10-29 19:42:00,,0829.9,5.01,0.00,26.3,25.0,00.0,35.0,28.2,07.1,0000.0,0004.68,0003.41,0003.23
2022-10-29 19:43:00,,0829.9,4.99,0.00,26.3,25.1,00.0,35.0,28.2,07.3,0000.0,0004.87,0003.47,0003.27
2022-10-29 19:44:00,,0829.9,5.01,0.00,26.3,25.1,00.0,35.0,28.2,07.6,0000.0,0004.89,0003.49,0003.30
2022-10-29 19:45:00,,0829.9,5.01,0.00,26.3,25.1,00.0,35.0,28.2,07.5,0000.0,0005.25,0003.52,0003.32
2022-10-29 19:46:00,,0829.9,4.99,0.00,26.3,25.1,00.0,35.0,28.2,07.2,0000.0,0006.82,0003.55,0003.35
2022-10-29 19:47:00,,0829.9,4.98,0.00,26.3,25.1,00.0,35.0,28.3,07.1,0000.0,0006.82,0003.56,0003.37
2022-10-29 19:48:00,,0829.9,5.01,0.00,26.3,25.1,00.0,35.0,28.2,07.1,0000.0,0006.83,0003.57,0003.38
2022-10-29 19:49:00,,0829.8,4.99,0.00,26.3,25.1,00.0,35.1,28.2,06.8,0000.0,0007.01,0003.57,0003.38
2022-10-29 19:50:00,,0829.8,5.00,0.00,26.3,25.1,00.0,35.1,28.3,06.9,0000.0,0008.25,0003.60,0003.39
2022-10-29 19:51:00,,0829.8,5.01,0.00,26.3,25.1,00.0,35.1,28.3,07.0,0000.0,0008.30,0003.61,0003.40
2022-10-29 19:52:00,,0829.8,4.98,0.00,26.4,25.1,00.0,35.1,28.3,06.8,0000.0,0008.29,0003.61,0003.40
2022-10-29 19:53:00,,0829.8,5.01,0.00,26.4,25.1,00.0,35.1,28.3,06.9,0000.0,0008.27,0003.60,0003.40
2022-10-29 19:54:00,,0829.8,4.99,0.00,26.4,25.2,00.0,35.1,28.3,06.7,0000.0,0008.21,0003.57,0003.39
2022-10-29 19:55:00,,0829.7,5.01,0.00,26.4,25.2,00.0,35.1,28.3,07.0,0000.0,0008.23,0003.59,0003.40
2022-10-29 19:56:00,,0829.8,5.01,0.00,26.4,25.2,00.0,35.1,28.3,06.9,0000.0,0008.29,0003.62,0003.43
2022-10-29 19:57:00,,0829.8,4.99,0.00,26.4,25.2,00.0,35.1,28.3,06.8,0000.0,0007.48,0003.63,0003.43
2022-10-29 19:58:00,,0829.7,5.01,0.00,26.4,25.2,00.0,35.1,28.3,06.8,0000.0,0007.51,0003.64,0003.42
2022-10-29 19:59:00,,0829.7,5.01,0.00,26.4,25.2,00.0,35.1,28.3,06.8,0000.0,0007.52,0003.63,0003.40
